Regional Weather Roundup
Issued by NWS

Home | Current Version | Previous Version | Graphics & Text | Print | Product List | Glossary On
Versions: 1 2 3 4 5 6 7 8 9 10 11 12 13 14 15 16 17 18 19 20 21 22 23 24 25 26 27 28 29 30 31 32 33 34 35 36 37 38 39 40 41 42 43 44 45 46 47 48 49 50
000
ASUS44 KMEG 172100
RWRTN
TENNESSEE HOURLY STATE WEATHER ROUNDUP
NATIONAL WEATHER SERVICE MEMPHIS TN
300 PM CST WED DEC 17 2014

TNZ002-004-019-021-049-052-054-088>092-172200-
WEST TENNESSEE

CITY           SKY/WX    TMP DP  RH WIND       PRES   REMARKS
MEMPHIS INTL   CLOUDY    44  33  65 NW5       30.26F
NWS MEMPHIS      N/A     41 N/A N/A MISG        N/A
JACKSON        CLOUDY    40  30  67 CALM      30.26F
DYERSBURG      CLOUDY    39  19  45 CALM      30.28R
UNION CITY     SUNNY     37  28  70 CALM      30.24F
PARIS          SUNNY     37  27  65 CALM      30.25S
LEXINGTON      SUNNY     41  28  60 CALM      30.24S
SAVANNAH       SUNNY     43  30  61 N5        30.25S
$$

TNZ008-025-027-028-033-062-065-066-172200-
NORTH MIDDLE TENNESSEE

CITY           SKY/WX    TMP DP  RH WIND       PRES   REMARKS
NASHVILLE      CLOUDY    39  29  67 NW6       30.26R WCI  35
CLARKSVILLE    PTSUNNY   41  28  60 N3        30.25F
COOKEVILLE     MOSUNNY   39  32  75 N3        30.21S
CROSSVILLE     SUNNY     39  29  67 NW7       30.18R WCI  34
$$

TNZ061-075-076-078-094-096-097-172200-
SOUTH MIDDLE TENNESSEE

CITY           SKY/WX    TMP DP  RH WIND       PRES   REMARKS
FAYETTEVILLE   CLOUDY    39  30  70 MISG      30.21S
TULLAHOMA      CLOUDY    37  30  75 NW7       30.22R WCI  32
WINCHESTER     CLOUDY    39  34  81 N3        30.22R
SHELBYVILLE    CLOUDY    39  34  81 NW3       30.24S
$$

TNZ017-018-042-046-047-172200-
NORTHEAST TENNESSEE

CITY           SKY/WX    TMP DP  RH WIND       PRES   REMARKS
TRI CITIES     MOSUNNY   47  33  58 W7        30.13R
ELIZABETHTON   PTCLDY    45  30  57 W8        30.12R
$$

TNZ012-013-036-069-073-074-172200-
CENTRAL EAST TENNESSEE

CITY           SKY/WX    TMP DP  RH WIND       PRES   REMARKS
KNOXVILLE      PTSUNNY   45  34  65 CALM      30.17F
OAK RIDGE      PTSUNNY   48  34  58 SW5       30.19S
GATLINBURG     PTCLDY    45  34  65 SW6       30.16F
$$

TNZ083-085-099-172200-
SOUTHEAST TENNESSEE

CITY           SKY/WX    TMP DP  RH WIND       PRES   REMARKS
CHATTANOOGA    CLOUDY    46  34  62 NE7       30.18F
$$

SKY/WX REPORTED AS FAIR MEANS FEW OR NO CLOUDS BELOW
12 THOUSAND FEET.



USA.gov is the U.S. government's official web portal to all federal, state and local government web resources and services.